Weather History for Mena, AR

Change the Weather History Date:

Wednesday, January 29, 2014

  Actual Average (KFSM) Record (KFSM)
Temperature  
Mean Temperature 28 °F -  
Max Temperature 46 °F 50 °F 78 °F (1947)
Min Temperature 10 °F 29 °F 1 °F (1966)
Degree Days  
Heating Degree Days 37    
Moisture  
Dew Point 4 °F    
Average Humidity 41    
Maximum Humidity 79    
Minimum Humidity 14    
Precipitation  
Precipitation 0.00 in - - ()
Sea Level Pressure  
Sea Level Pressure 30.32 in    
Wind  
Wind Speed 2 mph (SW)    
Max Wind Speed 10 mph    
Max Gust Speed 9 mph    
Visibility 10 miles    
Events Rain    
Averages and records for this station are not official NWS values.
T = Trace of Precipitation, MM = Missing Value Source: NWS Daily Summary

Daily Weather History Graph

Daily Weather History Graph

Search for Another Location

Airport:

Trip Planner

Search our weather history database for the weather conditions in past years. The results will help you decide how hot, cold, wet, or windy it might be!

Date:

Astronomy

Jan. 29, 2014 Rise Set
Actual Time 7:16 AM CST 5:43 PM CST
Civil Twilight 6:50 AM CST 6:10 PM CST
Nautical Twilight 6:20 AM CST 6:40 PM CST
Astronomical Twilight 5:50 AM CST 7:10 PM CST
Moon 5:53 AM CST (1/29) 4:43 PM CST (1/29)
Length of Visible Light 11h 19m
Length of Day
10h 26m
Waning Crescent, 2% of the Moon is Illuminated
Jan 29
Waning Crescent
Jan 30
New
Feb 6
First Quarter
Feb 14
Full
Feb 22
Last Quarter

Hourly Weather History & Observations

Time (CST) Temp. Windchill Dew Point Humidity Pressure Visibility Wind Dir Wind Speed Gust Speed Precip Events Conditions
12:15 AM 14.0 °F - 1.4 °F 57% 30.38 in 10.0 mi Calm Calm - N/A   Clear
12:35 AM 14.0 °F - 1.4 °F 57% 30.38 in 10.0 mi Calm Calm - N/A   Clear
12:55 AM 14.0 °F - 1.4 °F 57% 30.38 in 10.0 mi Calm Calm - N/A   Clear
1:15 AM 14.0 °F - 3.2 °F 62% 30.39 in 10.0 mi Calm Calm - N/A   Clear
1:35 AM 14.0 °F - 1.4 °F 57% 30.38 in 10.0 mi Calm Calm - N/A   Clear
1:55 AM 12.2 °F - 3.2 °F 67% 30.38 in 10.0 mi Calm Calm - N/A   Clear
2:15 AM 15.8 °F - 5.0 °F 62% 30.38 in 10.0 mi Calm Calm - N/A   Clear
2:35 AM 15.8 °F - 5.0 °F 62% 30.38 in 10.0 mi Calm Calm - N/A   Clear
2:55 AM 14.0 °F - 5.0 °F 67% 30.38 in 10.0 mi Calm Calm - N/A   Clear
3:15 AM 14.0 °F 8.2 °F 3.2 °F 62% 30.38 in 10.0 mi WSW 3.5 mph - N/A   Clear
3:35 AM 15.8 °F - 5.0 °F 62% 30.37 in 10.0 mi Calm Calm - N/A   Clear
3:55 AM 14.0 °F - 5.0 °F 67% 30.37 in 10.0 mi Calm Calm - N/A   Clear
4:15 AM 12.2 °F - 3.2 °F 67% 30.37 in 10.0 mi Calm Calm - N/A   Clear
4:35 AM 12.2 °F - 3.2 °F 67% 30.37 in 10.0 mi Calm Calm - N/A   Clear
4:55 AM 12.2 °F 6.1 °F 5.0 °F 73% 30.37 in 10.0 mi WSW 3.5 mph - N/A   Clear
5:15 AM 12.2 °F - 3.2 °F 67% 30.36 in 10.0 mi Calm Calm - N/A   Clear
5:35 AM 12.2 °F - 3.2 °F 67% 30.37 in 10.0 mi Calm Calm - N/A   Clear
5:55 AM 12.2 °F - 1.4 °F 62% 30.37 in 10.0 mi Calm Calm - N/A   Clear
6:15 AM 12.2 °F - 3.2 °F 67% 30.37 in 10.0 mi Calm Calm - N/A   Clear
6:35 AM 10.4 °F - 1.4 °F 67% 30.37 in 10.0 mi Calm Calm - N/A   Clear
6:55 AM 10.4 °F - 1.4 °F 67% 30.37 in 10.0 mi Calm Calm - N/A   Clear
7:15 AM 12.2 °F - 3.2 °F 67% 30.38 in 10.0 mi Calm Calm - N/A   Clear
7:35 AM 12.2 °F - 5.0 °F 73% 30.38 in 10.0 mi Calm Calm - N/A   Clear
7:55 AM 14.0 °F - 6.8 °F 73% 30.39 in 10.0 mi Calm Calm - N/A   Clear
8:15 AM 15.8 °F - 10.4 °F 79% 30.39 in 10.0 mi Calm Calm - N/A   Clear
8:35 AM 21.2 °F - 12.2 °F 68% 30.39 in 10.0 mi Calm Calm - N/A   Clear
8:55 AM 23.0 °F - 14.0 °F 68% 30.39 in 10.0 mi Calm Calm - N/A   Clear
9:15 AM 28.4 °F - 17.6 °F 64% 30.40 in 10.0 mi Calm Calm - N/A   Clear
9:35 AM 32.0 °F 25.6 °F 5.0 °F 32% 30.41 in 10.0 mi SW 6.9 mph - N/A   Clear
9:55 AM 33.8 °F 27.0 °F 1.4 °F 25% 30.41 in 10.0 mi WSW 8.1 mph - N/A   Clear
10:15 AM 35.6 °F 30.7 °F 1.4 °F 24% 30.41 in 10.0 mi SW 5.8 mph - N/A   Clear
10:35 AM 35.6 °F 28.6 °F 1.4 °F 24% 30.41 in 10.0 mi SW 9.2 mph - N/A Rain Light Rain
10:55 AM 35.6 °F 28.0 °F 3.2 °F 26% 30.40 in 10.0 mi West 10.4 mph - N/A   Clear
11:15 AM 37.4 °F 30.8 °F 5.0 °F 26% 30.40 in 10.0 mi WSW 9.2 mph - N/A   Clear
11:35 AM 37.4 °F 31.4 °F 5.0 °F 26% 30.39 in 10.0 mi WSW 8.1 mph - N/A   Clear
11:55 AM 41.0 °F 38.0 °F 5.0 °F 23% 30.38 in 10.0 mi SW 4.6 mph - N/A   Clear
12:15 PM 41.0 °F 36.4 °F 5.0 °F 23% 30.37 in 10.0 mi WSW 6.9 mph - N/A   Clear
12:35 PM 41.0 °F 35.2 °F 6.8 °F 24% 30.35 in 10.0 mi West 9.2 mph - N/A   Clear
12:55 PM 42.8 °F 38.6 °F 5.0 °F 21% 30.34 in 10.0 mi West 6.9 mph - N/A   Clear
1:15 PM 42.8 °F 39.3 °F 6.8 °F 23% 30.33 in 10.0 mi WSW 5.8 mph - N/A   Clear
1:35 PM 42.8 °F 39.3 °F 5.0 °F 21% 30.31 in 10.0 mi SSW 5.8 mph - N/A   Clear
1:55 PM 44.6 °F 43.1 °F 5.0 °F 20% 30.31 in 10.0 mi WSW 3.5 mph 9.2 mph N/A   Clear
2:15 PM 44.6 °F 40.2 °F 5.0 °F 20% 30.30 in 10.0 mi WSW 8.1 mph - N/A   Clear
2:35 PM 44.6 °F 39.7 °F 5.0 °F 20% 30.29 in 10.0 mi West 9.2 mph - N/A   Clear
2:55 PM 44.6 °F 41.4 °F 3.2 °F 18% 30.28 in 10.0 mi South 5.8 mph - N/A   Clear
3:15 PM 44.6 °F 40.2 °F 3.2 °F 18% 30.27 in 10.0 mi West 8.1 mph - N/A   Clear
3:35 PM 46.4 °F 44.3 °F 3.2 °F 17% 30.26 in 10.0 mi SW 4.6 mph - N/A   Clear
3:55 PM 46.4 °F 44.3 °F -0.4 °F 14% 30.26 in 10.0 mi WSW 4.6 mph - N/A   Clear
4:15 PM 44.6 °F 43.1 °F -2.2 °F 14% 30.26 in 10.0 mi South 3.5 mph - N/A   Clear
4:35 PM 44.6 °F 43.1 °F -2.2 °F 14% 30.25 in 10.0 mi WSW 3.5 mph - N/A   Clear
4:55 PM 44.6 °F 43.1 °F -0.4 °F 15% 30.24 in 10.0 mi South 3.5 mph - N/A   Clear
5:15 PM 42.8 °F 40.1 °F -0.4 °F 16% 30.24 in 10.0 mi South 4.6 mph - N/A   Clear
5:35 PM 41.0 °F 39.0 °F 1.4 °F 19% 30.24 in 10.0 mi SSW 3.5 mph - N/A   Clear
5:55 PM 37.4 °F - 3.2 °F 24% 30.24 in 10.0 mi Calm Calm - N/A   Clear
6:15 PM 35.6 °F - 3.2 °F 26% 30.24 in 10.0 mi Calm Calm - N/A   Clear
6:35 PM 35.6 °F - 3.2 °F 26% 30.23 in 10.0 mi Calm Calm - N/A   Clear
6:55 PM 33.8 °F 30.8 °F 3.2 °F 28% 30.23 in 10.0 mi SSW 3.5 mph - N/A   Clear
7:15 PM 33.8 °F - 3.2 °F 28% 30.23 in 10.0 mi Calm Calm - N/A   Clear
7:35 PM 32.0 °F - 3.2 °F 30% 30.23 in 10.0 mi Calm Calm - N/A   Clear
7:55 PM 33.8 °F 30.8 °F 5.0 °F 30% 30.23 in 10.0 mi SSW 3.5 mph - N/A   Clear
8:15 PM 33.8 °F 30.8 °F 3.2 °F 28% 30.23 in 10.0 mi SSW 3.5 mph - N/A   Clear
8:35 PM 33.8 °F 29.6 °F 3.2 °F 28% 30.22 in 10.0 mi SSW 4.6 mph - N/A   Clear
8:55 PM 33.8 °F 30.8 °F 5.0 °F 30% 30.21 in 10.0 mi SSW 3.5 mph - N/A   Clear
9:15 PM 33.8 °F 30.8 °F 5.0 °F 30% 30.21 in 10.0 mi SSW 3.5 mph - N/A   Clear
9:35 PM 32.0 °F 28.7 °F 6.8 °F 35% 30.21 in 10.0 mi SSW 3.5 mph - N/A   Clear
9:55 PM 32.0 °F 28.7 °F 8.6 °F 38% 30.21 in 10.0 mi SSW 3.5 mph - N/A   Clear
10:15 PM 32.0 °F 28.7 °F 8.6 °F 38% 30.21 in 10.0 mi South 3.5 mph - N/A   Clear
10:35 PM 33.8 °F 27.7 °F 8.6 °F 35% 30.21 in 10.0 mi SW 6.9 mph - N/A   Clear
10:55 PM 33.8 °F 27.0 °F 8.6 °F 35% 30.20 in 10.0 mi SSW 8.1 mph - N/A   Clear
11:15 PM 33.8 °F 29.6 °F 6.8 °F 32% 30.19 in 10.0 mi SSW 4.6 mph - N/A   Clear
11:35 PM 33.8 °F - 8.6 °F 35% 30.19 in 10.0 mi Calm Calm - N/A   Clear
11:55 PM 33.8 °F 29.6 °F 8.6 °F 35% 30.18 in 10.0 mi South 4.6 mph - N/A   Clear